User: anonymous   Login
Location: Dresden
(51.0300°N, 13.7800°E)
Time: 20:24:29
(UTC+01:00)
Language:

AO-85 - Orbit

View from above orbital plane
View from above orbital plane
View from above satellite
View from above satellite

Ground track
Ground track

The orbit data is extracted from the following two-line orbital elements,

1 40967U 15058D   25341.10204532  .00006734  00000-0  60614-3 0  9997
2 40967  64.7739 155.3311 0135592 132.1815 229.0906 14.89580434 84948
Epoch (UTC): 07 December 2025 02:26:56
Eccentricity: 0.0135592
inclination: 64.7739°
perigee height: 504 km
apogee height: 694 km
right ascension of ascending node: 155.3311°
argument of perigee: 132.1815°
revolutions per day: 14.89580434
mean anomaly at epoch: 229.0906°
orbit number at epoch: 8494

The dashed part of the orbit path shows where the satellite is in the earth's shadow,  

DLR